Stations météo

réclame
Mon MeteoGroup
Coningsby, Grande-Bretagne (3391): Température de l'air & dewpoint: 22.10.2020 14:00:00 - 28.10.2020 14:00:00 (GMT)Coningsby, Grande-Bretagne (3391): Température de l'air -20cm & Température de l'air -100cm: 22.10.2020 14:00:00 - 28.10.2020 14:00:00 (GMT)Coningsby, Grande-Bretagne (3391): Vitesse du vent & gusts: 22.10.2020 14:00:00 - 28.10.2020 14:00:00 (GMT)Coningsby, Grande-Bretagne (3391): Direction du vent: 22.10.2020 14:00:00 - 28.10.2020 14:00:00 (GMT)Coningsby, Grande-Bretagne (3391): reduced air pressure: 22.10.2020 14:00:00 - 28.10.2020 14:00:00 (GMT)Coningsby, Grande-Bretagne (3391): visibility: 22.10.2020 14:00:00 - 28.10.2020 14:00:00 (GMT)Coningsby, Grande-Bretagne (3391): Quantités de précipitations: 22.10.2020 14:00:00 - 28.10.2020 14:00:00 (GMT)
Date & Time tt [°C] td [°C] tt -20cm [°C] tt -100cm [°C] ff [km/h] ff [knt] fx [km/h] fx [knt] dd ppp [hPa] vv [km] rr [mm]
28.10.2020 14:00:00 - - - - - - - - - - - -
28.10.2020 13:00:00 11,9 6,9 - - 31 17 50 27 SW 998,4 10 0,0
28.10.2020 12:00:00 11,0 6,4 - - 28 15 46 25 SW 998,6 10 0,0
28.10.2020 11:00:00 11,0 6,8 - - 29 16 46 25 SW 998,7 10 0,0
28.10.2020 10:00:00 9,9 6,7 - - 28 15 - - SW 998,5 10 0,0
28.10.2020 09:00:00 7,9 6,0 9,5 12,2 21 11 - - SSW 998,3 10 0,0
28.10.2020 08:00:00 7,3 5,6 - - 21 11 - - SSW 997,9 10 0,0
28.10.2020 07:00:00 5,9 4,4 - - 18 10 - - SSW 997,4 10 0,0
28.10.2020 06:00:00 6,2 4,6 - - 26 14 - - SSW 996,8 10 0,0
28.10.2020 05:00:00 6,3 4,7 - - 21 11 - - SSW 996,9 10 0,0
28.10.2020 04:00:00 6,6 5,0 - - 21 11 - - SSW 996,8 10 0,0
28.10.2020 03:00:00 6,5 5,1 - - 24 13 - - SSW 996,4 10 0,0
28.10.2020 02:00:00 6,1 4,7 - - 16 9 - - SSW 996,8 10 0,0
28.10.2020 01:00:00 6,2 4,7 - - 15 8 - - SSW 996,5 24 0,0
28.10.2020 00:00:00 7,0 4,7 - - 16 9 - - SSW 996,6 10 0,0
27.10.2020 23:00:00 7,3 5,1 - - 18 10 - - SSW 996,0 10 0,0
27.10.2020 22:00:00 7,8 5,1 - - 18 10 - - SW 995,4 10 0,0
27.10.2020 21:00:00 8,2 5,3 - - 22 12 - - SW 994,6 30 0,0
27.10.2020 20:00:00 8,8 5,7 - - 24 13 - - WSW 993,7 10 0,0
27.10.2020 19:00:00 9,5 7,0 - - 18 10 - - WSW 992,8 10 0,0
27.10.2020 18:00:00 10,8 7,5 - - 26 14 - - W 991,8 10 0,0
27.10.2020 17:00:00 11,4 9,9 - - 26 14 - - WSW 990,6 40 0,0
27.10.2020 16:00:00 11,5 11,1 - - 26 14 - - S 989,5 10 0,4
27.10.2020 15:00:00 10,9 10,5 - - 24 13 - - S 990,1 4,0 0,6
27.10.2020 14:00:00 10,2 9,8 - - 26 14 - - S 991,2 4,0 0,4
27.10.2020 13:00:00 9,8 9,3 - - 22 12 - - S 992,7 5 0,2
27.10.2020 12:00:00 9,5 8,9 - - 21 11 - - S 994,2 10 0,4
27.10.2020 11:00:00 9,2 8,2 - - 21 11 - - S 995,9 10 0,0
27.10.2020 10:00:00 8,5 7,6 - - 16 9 - - S 996,6 10 0,2
27.10.2020 09:00:00 7,4 6,8 9,7 12,5 15 8 - - S 996,9 10 0,2
27.10.2020 08:00:00 5,5 5,3 - - 8 4 - - SSE 997,6 10 0,0
27.10.2020 07:00:00 4,6 4,2 - - 8 4 - - S 997,8 10 0,0
27.10.2020 06:00:00 4,5 4,1 - - 11 6 - - S 997,8 25 0,0
27.10.2020 05:00:00 4,4 3,7 - - 11 6 - - SSW 998,1 10 0,0
27.10.2020 04:00:00 5,0 4,3 - - 11 6 - - SSW 997,9 25 0,0
27.10.2020 03:00:00 5,5 4,5 - - 13 7 - - SW 998,1 10 0,0
27.10.2020 02:00:00 5,5 4,8 - - 15 8 - - SW 998,3 25 0,0
27.10.2020 01:00:00 3,9 3,2 - - 13 7 - - SW 998,1 10 0,0
27.10.2020 00:00:00 6,5 5,0 - - 15 8 - - WSW 998,1 10 0,0
26.10.2020 23:00:00 7,8 5,7 - - 21 11 - - WSW 998,0 30 0,0
26.10.2020 22:00:00 8,1 6,0 - - 13 7 - - SW 997,8 10 0,0
26.10.2020 21:00:00 8,0 6,2 - - 16 9 - - SSW 997,4 10 0,0
26.10.2020 20:00:00 7,8 5,7 - - 15 8 - - SW 997,0 10 0,0
26.10.2020 19:00:00 8,0 6,1 - - 16 9 - - SW 996,5 10 0,0
26.10.2020 18:00:00 8,3 6,4 - - 18 10 - - WSW 996,1 10 0,0
26.10.2020 17:00:00 8,7 6,3 - - 16 9 - - WSW 995,2 10 0,2
26.10.2020 16:00:00 10,8 6,9 - - 24 13 - - WNW 995,3 10 0,0
26.10.2020 15:00:00 11,5 8,5 - - 16 9 - - W 994,4 10 0,0
26.10.2020 14:00:00 10,9 9,0 - - 18 10 55 30 WNW 994,1 30 2,4
26.10.2020 13:00:00 13,0 9,0 - - 28 15 - - WSW 993,4 10 0,0
26.10.2020 12:00:00 11,3 8,9 - - 26 14 - - WSW 993,3 10 0,2
26.10.2020 11:00:00 10,2 7,9 - - 26 14 - - SW 993,2 18 0,0
26.10.2020 10:00:00 9,4 7,6 - - 16 9 - - SSW 993,1 10 0,2
26.10.2020 09:00:00 8,1 6,9 10,2 12,7 24 13 - - SSW 993,0 10 0,0
26.10.2020 08:00:00 6,0 5,0 - - 18 10 - - SSW 993,1 10 0,0
26.10.2020 07:00:00 5,0 4,4 - - 16 9 - - S 993,0 10 0,0
26.10.2020 06:00:00 4,8 4,3 - - 16 9 - - S 992,7 10 0,0
26.10.2020 05:00:00 5,0 4,5 - - 16 9 - - SSW 992,7 30 0,0
26.10.2020 04:00:00 5,2 4,7 - - 18 10 - - SSW 992,9 10 0,0
26.10.2020 03:00:00 5,5 4,9 - - 16 9 - - S 992,9 10 0,0
26.10.2020 02:00:00 5,5 4,8 - - 16 9 - - SSW 993,4 10 0,0
26.10.2020 01:00:00 6,0 5,3 - - 16 9 - - S 993,8 10 0,0
26.10.2020 00:00:00 6,2 5,6 - - 16 9 - - S 993,9 10 0,0
25.10.2020 23:00:00 6,7 5,7 - - 13 7 - - S 993,9 35 0,0
25.10.2020 22:00:00 7,3 6,0 - - 16 9 - - SSW 994,2 40 0,0
25.10.2020 21:00:00 7,5 6,5 - - 16 9 - - S 994,5 10 0,0
25.10.2020 20:00:00 7,6 6,4 - - 15 8 - - S 994,2 10 0,0
25.10.2020 19:00:00 7,9 6,2 - - 16 9 - - SSW 994,1 10 0,0
25.10.2020 18:00:00 8,7 6,7 - - 21 11 - - SSW 993,9 10 0,2
25.10.2020 17:00:00 9,7 6,3 - - 18 10 - - SSW 993,8 10 0,0
25.10.2020 16:00:00 11,3 7,1 - - 18 10 - - S 993,5 10 0,0
25.10.2020 15:00:00 12,3 6,5 - - 22 12 - - SSW 993,4 40 0,0
25.10.2020 14:00:00 13,2 7,3 - - 28 15 46 25 SSW 993,2 10 0,0
25.10.2020 13:00:00 13,1 6,7 - - 29 16 - - SSW 993,4 40 0,0
25.10.2020 12:00:00 12,5 7,1 - - 31 17 - - SSW 993,5 10 0,0
25.10.2020 11:00:00 12,2 8,3 - - 31 17 46 25 SSW 993,9 10 0,0
25.10.2020 10:00:00 10,5 7,6 - - 29 16 - - SSW 993,9 10 0,0
25.10.2020 09:00:00 9,1 7,1 10,7 12,7 28 15 - - SSW 994,0 10 0,0
25.10.2020 08:00:00 7,4 6,3 - - 24 13 - - S 994,0 10 0,0
25.10.2020 07:00:00 7,1 6,3 - - 21 11 - - S 993,6 10 0,0
25.10.2020 06:00:00 6,7 5,9 - - 15 8 - - S 993,4 10 0,0
25.10.2020 05:00:00 7,2 6,0 - - 18 10 - - S 993,6 10 0,0
25.10.2020 04:00:00 6,9 5,9 - - 15 8 - - SSW 993,4 10 0,0
25.10.2020 03:00:00 7,4 6,6 - - 13 7 - - SSW 993,2 10 0,0
25.10.2020 02:00:00 8,1 6,8 - - 9 5 - - SSW 993,2 10 0,0
25.10.2020 01:00:00 9,4 7,8 - - 13 7 - - SW 993,0 10 0,0
25.10.2020 00:00:00 - - - - - - - - - - - -
24.10.2020 23:00:00 10,6 9,1 - - 13 7 - - SW 992,3 40 0,4
24.10.2020 22:00:00 11,4 10,3 - - 24 13 - - SW 991,7 7 2,6
24.10.2020 21:00:00 12,0 10,8 - - 26 14 - - SSW 991,2 10 1,0
24.10.2020 20:00:00 12,7 11,0 - - 26 14 - - SSW 991,3 7 0,4
24.10.2020 19:00:00 13,6 11,0 - - 26 14 46 25 SSW 991,6 10 0,0
24.10.2020 18:00:00 13,3 12,1 - - 22 12 61 33 WSW 992,1 6 0,6
24.10.2020 17:00:00 14,8 12,7 - - 46 25 65 35 SSW 991,7 10 0,2
24.10.2020 16:00:00 14,2 12,8 - - 35 19 57 31 S 992,5 10 0,0
24.10.2020 15:00:00 14,6 12,2 - - 34 18 54 29 S 994,2 10 0,0
24.10.2020 14:00:00 13,9 12,2 - - 34 18 54 29 S 995,8 25 0,0
24.10.2020 13:00:00 14,2 11,6 - - 35 19 54 29 S 997,0 10 0,0
24.10.2020 12:00:00 13,5 10,9 - - 31 17 50 27 S 998,3 10 0,0
24.10.2020 11:00:00 12,7 10,2 - - 28 15 - - S 999,1 10 0,0
24.10.2020 10:00:00 11,0 9,2 - - 21 11 - - S 1000,2 10 0,0
24.10.2020 09:00:00 9,3 7,8 10,7 12,9 28 15 - - S 1000,6 10 0,0
24.10.2020 08:00:00 8,3 6,9 - - 18 10 - - S 1001,7 10 0,0
24.10.2020 07:00:00 7,2 6,0 - - 21 11 - - S 1001,9 10 0,0
24.10.2020 06:00:00 6,6 5,4 - - 15 8 - - S 1003,3 10 0,0
24.10.2020 05:00:00 5,9 4,7 - - 16 9 - - S 1004,2 10 0,0
24.10.2020 04:00:00 5,9 4,7 - - 16 9 - - S 1004,6 10 0,0
24.10.2020 03:00:00 5,9 4,7 - - 16 9 - - S 1005,4 10 0,0
24.10.2020 02:00:00 5,6 4,3 - - 15 8 - - S 1006,6 10 0,0
24.10.2020 01:00:00 5,2 3,9 - - 11 6 - - S 1007,1 35 0,0
24.10.2020 00:00:00 5,5 4,3 - - 11 6 - - S 1007,4 35 0,0
23.10.2020 23:00:00 5,9 4,7 - - 13 7 - - SW 1007,6 10 0,0
23.10.2020 22:00:00 6,5 5,2 - - 11 6 - - SSW 1007,8 10 0,0
23.10.2020 21:00:00 7,1 6,0 - - 11 6 - - SSW 1008,0 10 0,0
23.10.2020 20:00:00 6,9 5,4 - - 9 5 - - WSW 1007,6 10 0,0
23.10.2020 19:00:00 6,7 5,4 - - 11 6 - - WSW 1007,0 10 0,0
23.10.2020 18:00:00 10,2 6,6 - - 21 11 - - W 1006,2 10 0,0
23.10.2020 17:00:00 11,2 9,2 - - 21 11 - - W 1005,5 10 0,2
23.10.2020 16:00:00 10,8 9,6 - - 22 12 - - WSW 1004,8 10 1,8
23.10.2020 15:00:00 13,0 9,9 - - 21 11 - - WSW 1004,3 10 0,0
23.10.2020 14:00:00 13,9 10,0 - - 21 11 - - SW 1003,9 10 0,0
23.10.2020 13:00:00 12,7 10,9 - - 15 8 - - SW 1004,3 10 0,2
23.10.2020 12:00:00 12,0 10,7 - - 11 6 - - SW 1005,0 20 0,0
23.10.2020 11:00:00 12,2 9,9 - - 21 11 - - WSW 1005,5 10 0,0
23.10.2020 10:00:00 12,1 10,7 - - 15 8 - - SW 1005,1 10 0,0
23.10.2020 09:00:00 9,8 9,5 11,0 13,0 8 4 - - S 1005,3 7 0,0
23.10.2020 08:00:00 8,1 7,8 - - 4 2 - - E 1005,4 10 0,0
23.10.2020 07:00:00 8,0 7,7 - - 4 2 - - NE 1005,6 3,5 1,8
23.10.2020 06:00:00 7,9 7,6 - - 4 2 - - ESE 1006,1 2,5 1,8
23.10.2020 05:00:00 7,9 7,2 - - 9 5 - - S 1006,9 3,0 1,6
23.10.2020 04:00:00 7,6 6,8 - - 8 4 - - SSE 1007,2 10 0,0
23.10.2020 03:00:00 7,1 6,2 - - 4 2 - - SSE 1007,9 10 0,0
23.10.2020 02:00:00 6,3 5,4 - - 4 2 - - S 1008,7 10 0,0
23.10.2020 01:00:00 4,4 3,1 - - 8 4 - - SSW 1009,1 10 0,0
23.10.2020 00:00:00 6,2 5,0 - - 8 4 - - WSW 1009,0 30 0,0
22.10.2020 23:00:00 7,1 5,2 - - 11 6 - - SW 1009,4 10 0,0
22.10.2020 22:00:00 7,5 6,0 - - 5 3 - - WSW 1009,4 10 0,0
22.10.2020 21:00:00 6,8 5,0 - - 5 3 - - WSW 1009,4 10 0,0
22.10.2020 20:00:00 7,0 5,2 - - 5 3 - - SW 1009,2 10 0,0
22.10.2020 19:00:00 8,6 6,2 - - 8 4 - - WSW 1009,0 10 0,0
22.10.2020 18:00:00 9,5 6,3 - - 11 6 - - WSW 1008,3 10 0,0
22.10.2020 17:00:00 11,6 6,6 - - 15 8 - - WSW 1007,7 50 0,0
22.10.2020 16:00:00 12,5 6,8 - - 22 12 - - WSW 1007,1 10 0,0
22.10.2020 15:00:00 13,0 6,6 - - 26 14 - - WSW 1006,6 10 0,0
22.10.2020 14:00:00 13,0 6,2 - - 28 15 - - WSW 1006,2 10 0,0

tt = Température de l'air
td = dewpoint
tt -20cm = Température de l'air -20cm
tt -100cm = Température de l'air -100cm
ff = Vitesse du vent
fx = gusts
dd = Direction du vent
ppp = reduced air pressure
vv = visibility
rr = Quantités de précipitations

stations d'obs. à proximité